KNJWESTM5 Weather Reports


time (UTC)temp
F
wind
direction
speed
knots
gust
knots
rain 1hr
in
rain 24hr
in
rain mn
in
humidity
%
barometer
mb
20260506113505 65 215 7.8 10.4 0.00 0.00 0.00 78 1098.4
20260506113006 65 204 0.9 10.4 0.00 0.00 0.00 78 1098.4
20260506112506 65 202 1.7 7.8 0.00 0.00 0.00 79 1098.4
20260506111505 64 188 4.3 7.0 0.00 0.00 0.00 79 1098.4
20260506111007 64 198 3.5 7.8 0.00 0.00 0.00 79 1098.4
20260506110506 64 205 1.7 7.8 0.00 0.00 0.00 79 1098.4
20260506110006 64 201 1.7 7.0 0.00 0.00 0.00 79 1098.4
20260506105505 64 204 2.6 7.0 0.00 0.00 0.00 79 1098.4
20260506105005 64 201 2.6 7.0 0.00 0.00 0.00 79 1098.4
20260506104505 64 196 0.0 4.3 0.00 0.00 0.00 79 1098.4
20260506103505 64 195 0.0 6.1 0.00 0.00 0.00 79 1098.4
20260506102506 64 209 1.7 7.8 0.00 0.00 0.00 79 1098.4
20260506102006 64 203 3.5 7.8 0.00 0.00 0.00 79 1098.4
20260505225004 78 216 4.3 8.7 0.00 0.00 0.00 30 1098.4
20260505224505 78 231 1.7 9.6 0.00 0.00 0.00 30 1098.4
20260505121004 60 189 0.9 3.5 0.00 0.00 0.00 88 1098.4
20260505120504 59 186 0.0 3.5 0.00 0.00 0.00 90 1098.4
20260505115503 57 198 1.7 3.5 0.00 0.00 0.00 91 1098.4
20260505115004 56 205 0.0 2.6 0.00 0.00 0.00 90 1098.4
20260505114505 56 0 0.0 0.0 0.00 0.00 0.00 89 1098.4